Вернуться в каталог

BREEZE-M DEB

АктивенUNKNOWN
NORAD 34239·DEBRIS·🇷🇺 Russia

Запущен Feb 28, 2006 с Baikonur Cosmodrome

Loading…

Ближайшие Пролёты (ближайшие 24 часа)

TLE

СвежийSource: Space-Track

Эпоха: Sep 12, 2026, 21:42 UTC

1 34239U 06006BE  26255.90442269  .00013727  00000-0  23826-1 0  9991
2 34239  50.3255  90.7885 1400065 248.2108  96.4227 11.53825989 50254

Отслеживайте BREEZE-M DEB в реальном времени с AllMySat

Download on the App Store